Ahmedabad, India

5:49 PM IST on July 23, 2017 (GMT +0530)
Ahmedabad

Weather History for VAAH - October, 2013

Change the Weather History Date:

Thursday, October 3, 2013

  Actual Average Record
Temperature  
Mean Temperature 84 °F -  
Max Temperature 93 °F 92 °F 100 °F (2000)
Min Temperature 76 °F 69 °F 35 °F (2003)
Cooling Degree Days 20    
Growing Degree Days 34 (Base 50)    
Moisture  
Dew Point 79 °F    
Average Humidity 84    
Maximum Humidity 100    
Minimum Humidity 56    
Precipitation  
Precipitation 0.00 in 0.03 in - ()
Sea Level Pressure  
Sea Level Pressure 29.71 in    
Wind  
Wind Speed 3 mph ()    
Max Wind Speed 7 mph    
Max Gust Speed -    
Visibility 2.4 miles    
Events      
Averages and records for this station are not official NWS values.
T = Trace of Precipitation, MM = Missing Value Source: Averaged Metar Reports

Daily Weather History Graph

Daily Weather History Graph

Search for Another Location

Airport or City:

Trip Planner

Search our weather history database for the weather conditions in past years. The results will help you decide how hot, cold, wet, or windy it might be!

Date:

Astronomy

Oct. 03, 2013 Rise Set
Actual Time 6:31 AM IST 6:25 PM IST
Civil Twilight 6:09 AM IST 6:47 PM IST
Nautical Twilight 5:43 AM IST 7:13 PM IST
Astronomical Twilight 5:17 AM IST 7:39 PM IST
Moon 4:47 AM IST (10/3) 5:12 PM IST (10/3)
Length of Visible Light 12h 38m
Length of Day
11h 53m
Waning Crescent, 4% of the Moon is Illuminated
Oct 3
Waning Crescent
Oct 5
New
Oct 12
First Quarter
Oct 19
Full
Oct 27
Last Quarter

Hourly Weather History & Observations

Time (IST) Temp. Heat Index Dew Point Humidity Pressure Visibility Wind Dir Wind Speed Gust Speed Precip Events Conditions
12:10 AM 77.0 °F - 75.2 °F 94% 29.77 in 1.6 mi SSW 3.5 mph - N/A   Overcast
12:40 AM 78.8 °F - 77.0 °F 94% 29.74 in 1.6 mi WSW 3.5 mph - N/A   Overcast
1:10 AM 77.0 °F - 77.0 °F 100% 29.74 in 1.6 mi WSW 3.5 mph - N/A   Overcast
1:40 AM 78.8 °F - 77.0 °F 94% 29.74 in 1.6 mi North 3.5 mph - N/A   Overcast
2:10 AM 78.8 °F - 78.8 °F 100% 29.74 in 1.6 mi NE 3.5 mph - N/A   Overcast
2:30 AM 79 °F - 78 °F 95% 29.73 in 1 mi Calm Calm - -   Haze
2:40 AM 78.8 °F - 78.8 °F 100% 29.74 in 1.6 mi NNE 3.5 mph - N/A   Mostly Cloudy
3:10 AM 78.8 °F - 78.8 °F 100% 29.74 in 1.9 mi NNE 4.6 mph - N/A   Mostly Cloudy
3:40 AM 78.8 °F - 78.8 °F 100% 29.74 in 1.9 mi North 5.8 mph - N/A   Mostly Cloudy
4:10 AM 78.8 °F - 78.8 °F 100% 29.74 in 1.9 mi North 5.8 mph - N/A   Mostly Cloudy
4:40 AM 78.8 °F - 78.8 °F 100% 29.74 in 1.9 mi North 5.8 mph - N/A   Mostly Cloudy
5:10 AM 78.8 °F - 78.8 °F 100% 29.74 in 1.9 mi Calm Calm - N/A   Mostly Cloudy
5:30 AM 79 °F - 78 °F 96% 29.73 in 1 mi Calm Calm - -   Haze
5:40 AM 78.8 °F - 78.8 °F 100% 29.74 in 1.9 mi Calm Calm - N/A   Mostly Cloudy
6:10 AM 78.8 °F - 78.8 °F 100% 29.74 in 1.9 mi Calm Calm - N/A   Mostly Cloudy
7:10 AM 78.8 °F - 78.8 °F 100% 29.74 in 1.2 mi NNW 4.6 mph - N/A   Scattered Clouds
7:40 AM 80.6 °F 89.3 °F 80.6 °F 100% 29.74 in 1.1 mi NNW 2.3 mph - N/A   Scattered Clouds
8:10 AM 82.4 °F 96.1 °F 82.4 °F 100% 29.77 in 1.2 mi North 3.5 mph - N/A   Mist
8:30 AM 83 °F - 79 °F 85% 29.78 in 1 mi NW 3.5 mph - -   Haze
9:10 AM 86.0 °F 104.7 °F 82.4 °F 89% 29.77 in 1.9 mi North 2.3 mph - N/A   Haze
9:40 AM 87.8 °F 104.9 °F 80.6 °F 79% 29.77 in 2.5 mi NNE 3.5 mph - N/A   Haze
10:40 AM - - - N/A% 29.77 in 3.7 mi NE 3.5 mph - N/A   Partly Cloudy
11:10 AM 89.6 °F 104.7 °F 78.8 °F 70% 29.77 in 3.7 mi NE 5.8 mph - N/A   Partly Cloudy
11:30 AM 90 °F - 82 °F 71% 29.76 in 2 mi NE 3.5 mph - -   Haze
11:40 AM 91.4 °F 111.0 °F 80.6 °F 71% 29.74 in 3.7 mi NE 4.6 mph - N/A   Partly Cloudy
12:10 PM 91.4 °F 111.0 °F 80.6 °F 71% 29.74 in 3.7 mi North 6.9 mph - N/A   Partly Cloudy
12:40 PM 93.2 °F 113.6 °F 80.6 °F 67% 29.71 in 3.7 mi NNE 4.6 mph - N/A   Scattered Clouds
1:10 PM 91.4 °F 111.0 °F 80.6 °F 71% 29.71 in 3.7 mi NNE 5.8 mph - N/A   Scattered Clouds
1:40 PM 93.2 °F 117.1 °F 82.4 °F 71% 29.68 in 3.7 mi NNE 5.8 mph - N/A   Scattered Clouds
2:30 PM 92 °F - 78 °F 56% 29.67 in 2 mi NW 3.5 mph - -   Mostly Cloudy
2:40 PM 93.2 °F 113.6 °F 80.6 °F 67% 29.65 in 3.7 mi NNE 4.6 mph - N/A   Scattered Clouds
3:10 PM 95.0 °F 119.6 °F 82.4 °F 67% 29.65 in 3.7 mi North 3.5 mph - N/A   Scattered Clouds
3:40 PM 95.0 °F 119.6 °F 82.4 °F 67% 29.62 in 3.7 mi NNW 4.6 mph - N/A   Scattered Clouds
4:10 PM 95.0 °F 115.8 °F 80.6 °F 63% 29.62 in 3.7 mi North 3.5 mph - N/A   Scattered Clouds
4:40 PM 95.0 °F 115.8 °F 80.6 °F 63% 29.62 in 3.7 mi NNW 4.6 mph - N/A   Scattered Clouds
5:10 PM 87.8 °F 102.5 °F 78.8 °F 75% 29.62 in 3.7 mi North 5.8 mph - N/A   Mostly Cloudy
5:30 PM 86 °F - 74 °F 60% 29.63 in 2 mi North 2.3 mph - -   Partly Cloudy
5:40 PM 86.0 °F 96.9 °F 77.0 °F 74% 29.62 in 3.7 mi NNW 4.6 mph - N/A   Scattered Clouds
6:10 PM 84.2 °F 94.1 °F 77.0 °F 79% 29.65 in 3.7 mi North 3.5 mph - N/A   Scattered Clouds
7:10 PM 84.2 °F 94.1 °F 77.0 °F 79% 29.65 in 2.5 mi NNW 2.3 mph - N/A   Haze
7:40 PM 82.4 °F 89.5 °F 75.2 °F 79% 29.68 in 2.5 mi NW 2.3 mph - N/A   Haze
8:10 PM 82.4 °F 90.9 °F 77.0 °F 84% 29.68 in 2.5 mi NW 3.5 mph - N/A   Haze
8:30 PM 82 °F - 77 °F 82% 29.70 in 2 mi Calm Calm - -   Haze
8:40 PM 82.4 °F 90.9 °F 77.0 °F 84% 29.71 in 2.5 mi NNW 2.3 mph - N/A   Haze
9:10 PM 82.4 °F 90.9 °F 77.0 °F 84% 29.71 in 2.5 mi WNW 2.3 mph - N/A   Haze
9:40 PM 82.4 °F 90.9 °F 77.0 °F 84% 29.71 in 2.5 mi WSW 2.3 mph - N/A   Haze
10:10 PM 82.4 °F 90.9 °F 77.0 °F 84% 29.71 in 2.5 mi SSW 2.3 mph - N/A   Haze
10:40 PM 82.4 °F 92.4 °F 78.8 °F 89% 29.71 in 2.5 mi West 2.3 mph - N/A   Haze
11:10 PM 82.4 °F 92.4 °F 78.8 °F 89% 29.71 in 2.5 mi NNW 2.3 mph - N/A   Haze
11:30 PM 81 °F - 76 °F 81% 29.71 in 2 mi Calm Calm - -   Haze
11:40 PM 80.6 °F 88.1 °F 78.8 °F 94% 29.71 in 2.5 mi North 3.5 mph - N/A   Haze